Wind_Speed
19 19 18 17 17 16 16 15 15 14 14 13 13 13 13 12 12 12 12 11 11 10 9 9 8 7 7 6 6 6 6 6 6 6 6 6 6 6 6 6 6 7 7
20 20 20 18 18 17 16 16 15 15 15 15 14 14 14 13 13 13 13 12 12 11 11 10 9 9 8 8 8 7 7 7 7 8 8 8 8 8 9 8 8 8 9
22 21 21 20 19 18 17 17 17 16 16 16 16 15 15 14 14 14 13 13 13 12 12 12 11 11 10 10 9 9 9 9 9 9 9 9 10 10 10 10 10 10 10
23 22 21 20 20 19 18 18 18 18 17 17 17 16 15 15 15 14 14 14 13 13 13 13 12 12 12 12 11 11 11 11 10 10 10 10 11 11 11 11 11 11 11
24 23 23 20 20 20 19 18 18 18 18 18 17 17 16 16 15 15 15 14 14 14 14 14 13 13 13 13 13 13 12 12 12 12 12 12 12 12 12 12 13 13 12
25 24 24 22 21 21 20 19 19 19 18 18 17 17 17 17 16 16 16 16 15 15 15 14 14 14 14 14 14 14 14 14 14 13 14 14 14 13 14 14 14 14 14
26 25 25 24 23 23 22 21 20 20 19 19 19 19 19 18 18 17 17 17 16 16 16 15 15 15 15 15 15 15 15 15 15 15 15 15 15 15 15 15 15 15 15
28 27 26 25 25 24 23 22 22 22 20 20 20 20 19 19 19 18 18 17 17 17 17 16 16 16 16 16 16 16 16 16 16 16 16 16 16 16 16 16 16 16 16
29 29 27 27 27 26 24 24 24 23 21 21 21 21 20 20 20 20 20 19 19 18 19 19 18 18 18 18 18 18 18 17 17 17 18 18 18 18 18 17 17 17 17
29 29 28 28 28 27 26 26 25 24 23 22 22 22 21 21 21 21 21 21 20 20 20 20 20 19 19 19 19 19 19 19 19 19 19 19 19 19 19 18 18 18 18
28 29 28 28 28 27 27 27 27 26 25 24 23 23 23 22 22 22 22 22 22 21 21 21 21 21 21 21 20 20 20 20 20 20 20 20 20 20 20 20 20 20 20
28 28 28 27 27 27 27 28 28 28 27 25 24 23 23 24 23 23 22 23 22 22 22 21 22 22 22 21 21 21 21 21 21 22 22 22 22 22 22 22 22 23 23
29 29 28 29 28 28 28 27 27 27 26 26 25 25 23 23 23 23 23 23 23 23 22 22 22 22 22 22 21 22 22 22 22 22 23 23 24 24 24 24 24 25 25
29 29 28 28 28 29 29 28 27 28 27 27 26 25 25 23 23 23 23 23 24 23 23 23 23 23 24 24 23 23 23 23 24 24 24 25 25 25 26 26 27 27 27
29 29 28 28 28 29 29 29 29 29 28 27 27 26 26 26 26 25 25 24 24 24 24 24 24 24 24 24 25 25 24 25 25 25 26 26 26 27 28 28 28 29 29
29 29 29 27 27 28 29 30 30 30 29 28 28 27 27 28 28 27 27 26 25 25 25 25 25 25 25 25 26 27 27 27 28 28 28 28 28 28 29 29 29 30 30
29 29 29 29 28 26 28 30 30 31 30 29 29 29 28 28 28 28 27 28 27 26 27 27 27 26 27 27 28 28 29 29 29 29 29 29 30 30 30 31 31 32 32
29 29 28 29 28 27 28 30 31 31 30 29 29 29 29 29 30 30 29 29 30 29 29 29 29 28 28 28 29 29 30 30 30 30 30 31 31 32 32 32 33 33 34
29 29 29 29 28 28 28 29 30 31 31 30 29 30 30 30 31 31 31 32 31 31 31 31 31 30 29 30 30 30 31 32 32 33 33 33 33 34 34 34 34 35 35
27 28 29 29 29 28 28 29 29 30 30 30 30 30 31 31 31 32 32 33 33 33 33 32 32 32 32 32 32 32 33 33 34 35 35 35 36 36 36 37 37 37 37
26 27 29 29 29 29 28 29 29 30 31 31 31 32 32 32 33 33 33 33 34 33 33 33 34 34 35 35 34 34 35 35 35 36 36 37 37 38 38 39 39 39 39
26 27 27 29 29 29 29 29 30 31 31 31 32 33 34 34 34 34 35 34 34 33 34 34 35 35 36 37 37 37 36 36 36 37 37 38 39 39 40 40 41 41 42
26 27 28 29 29 29 29 30 31 31 32 32 34 34 34 34 34 34 35 35 35 34 34 35 35 36 36 37 38 38 38 38 38 37 38 39 39 40 41 41 42 42 43
27 27 27 28 30 30 30 31 32 31 32 32 32 33 34 34 34 35 35 35 35 35 35 36 37 37 38 38 38 39 39 40 40 40 40 40 40 41 41 42 42 43 43
27 28 28 29 30 30 30 30 30 31 31 31 31 31 32 33 34 35 36 36 37 37 37 38 38 39 39 39 40 40 40 40 41 41 41 41 42 43 43 43 42 43 43
27 29 29 30 31 31 31 31 31 31 32 32 32 33 33 33 35 36 36 37 39 39 39 39 39 40 40 41 41 41 42 42 43 43 43 43 43 43 44 44 44 44 44
Wind_Direction
242 241 237 237 236 235 234 234 234 234 233 232 232 232 232 233 233 234 234 234 233 233 234 232 230 230 230 231 231 232 235 239 243 249 253 255 260 266 274 283 290 295 298
241 239 238 236 236 235 234 233 233 234 234 235 236 235 236 236 236 235 235 236 235 234 234 234 233 235 235 238 241 244 246 247 250 254 257 261 264 267 272 277 282 286 290
239 237 237 236 236 236 235 234 234 235 236 236 237 237 236 235 236 236 236 236 237 238 239 238 237 238 240 242 245 248 251 254 256 259 262 265 269 272 274 275 278 281 284
238 237 235 235 235 235 235 236 236 236 237 237 236 236 235 234 234 235 236 237 239 240 241 241 240 241 243 246 247 249 253 257 259 262 265 268 270 272 274 276 278 279 281
237 236 236 235 235 235 235 236 237 237 238 239 236 236 236 236 236 236 238 238 240 242 243 242 243 244 246 248 249 251 254 257 260 262 266 269 271 273 274 276 277 279 280
237 237 236 235 236 236 235 235 236 237 238 238 237 237 238 238 237 238 240 241 243 244 245 244 244 246 248 250 251 254 256 259 261 264 267 270 273 273 275 277 277 278 280
234 235 236 236 236 236 234 235 236 237 237 238 239 239 241 241 239 240 241 243 245 246 246 247 247 248 250 252 255 257 258 260 262 264 267 271 273 275 275 276 277 278 279
233 234 234 234 235 235 236 234 235 237 237 239 240 240 241 242 243 242 242 243 245 246 247 249 250 251 254 256 258 259 261 262 263 265 268 270 272 274 276 275 276 277 278
232 235 233 232 233 235 236 234 234 236 238 239 240 240 241 242 243 243 243 244 246 248 250 251 253 254 256 257 259 261 262 264 266 268 270 271 272 274 275 275 275 276 277
233 234 233 231 232 234 236 234 235 237 238 239 240 242 243 244 243 243 245 246 248 250 252 252 253 256 257 258 260 263 264 266 268 270 271 272 272 273 274 274 274 275 276
232 232 233 231 232 234 235 236 237 238 239 241 242 243 244 244 244 244 246 248 249 252 254 254 255 256 259 260 261 264 266 268 269 270 271 272 273 273 273 272 273 274 276
231 233 234 234 234 234 235 237 237 238 239 241 244 244 244 245 246 246 246 249 250 253 255 257 258 258 259 260 261 264 267 269 270 270 271 272 273 273 273 274 274 274 274
231 231 234 235 236 235 236 237 237 238 239 243 246 246 246 246 246 247 249 250 252 254 256 258 259 260 260 261 263 265 268 270 272 272 272 273 274 274 274 275 275 275 275
229 231 235 235 235 236 236 236 238 239 240 243 246 247 247 249 248 247 250 252 254 256 258 259 259 260 262 263 265 268 271 272 274 274 273 273 273 274 275 275 277 277 276
231 234 236 239 240 239 238 237 238 240 243 246 248 249 251 252 251 251 252 254 255 257 259 259 259 260 263 264 266 269 271 272 273 274 274 273 273 274 275 276 276 277 277
238 236 237 239 241 241 241 241 240 242 245 247 249 252 254 253 253 253 254 254 257 260 260 261 262 261 263 265 268 270 272 273 273 273 274 274 274 274 276 276 276 276 276
239 238 238 241 243 244 243 243 243 245 248 250 251 252 253 254 256 256 256 256 258 259 260 261 263 263 264 266 268 270 272 274 274 275 274 274 274 274 275 276 277 276 275
238 239 240 242 245 247 248 246 248 248 249 251 251 252 253 255 256 257 257 258 259 261 261 262 264 264 265 267 269 271 273 274 274 275 275 274 274 275 275 276 277 276 275
239 239 241 244 247 249 250 252 253 252 252 255 253 252 253 256 257 258 259 259 259 260 262 264 265 266 267 267 269 271 272 273 274 275 276 276 276 275 275 276 276 276 275
240 241 243 246 248 250 253 254 254 254 254 255 254 254 256 258 259 260 260 261 260 260 262 263 265 267 269 270 271 271 272 273 274 275 276 276 276 276 276 276 276 276 275
244 244 244 245 246 249 252 252 255 255 255 257 256 257 258 259 260 260 260 262 262 262 263 264 266 268 270 271 271 272 274 275 275 276 276 277 277 277 277 276 275 275 274
247 246 245 245 248 251 253 255 255 256 256 259 258 258 259 260 261 262 262 263 264 264 266 266 269 271 271 272 272 273 274 274 276 277 277 277 277 278 278 278 277 276 275
246 246 247 249 250 253 255 256 258 258 258 260 261 260 260 260 260 261 261 263 265 266 268 269 270 272 273 274 275 275 275 275 276 277 278 278 278 278 279 278 278 277 276
246 246 248 251 253 256 257 258 259 260 261 261 262 262 260 259 260 261 262 265 267 267 269 270 272 272 273 274 276 277 277 277 277 277 277 279 279 280 279 279 279 278 277
249 250 253 255 256 258 259 259 260 261 263 263 264 264 260 259 261 262 264 267 268 269 270 271 272 272 273 274 275 277 278 278 278 278 278 278 279 280 280 280 279 278 278
255 254 257 259 259 260 262 262 262 263 263 265 266 266 264 262 262 263 265 267 268 270 270 271 272 273 274 275 276 276 277 278 279 279 279 279 279 279 280 280 279 278 278
Height
5841 5842 5844 5846 5847 5849 5850 5851 5853 5854 5855 5856 5857 5858 5859 5860 5860 5861 5862 5863 5864 5864 5865 5866 5866 5867 5867 5868 5868 5869 5869 5870 5870 5871 5871 5872 5872 5872 5872 5873 5873 5873 5873
5838 5839 5841 5843 5844 5846 5847 5849 5850 5851 5853 5854 5855 5856 5857 5857 5858 5859 5860 5861 5862 5863 5863 5864 5865 5865 5866 5867 5867 5868 5868 5869 5869 5869 5870 5870 5870 5871 5871 5871 5871 5871 5871
5833 5835 5837 5839 5841 5843 5844 5846 5847 5849 5850 5851 5852 5853 5854 5855 5856 5857 5858 5859 5860 5861 5861 5862 5863 5864 5864 5865 5866 5866 5867 5867 5868 5868 5868 5869 5869 5869 5869 5869 5869 5869 5869
5829 5831 5833 5835 5838 5840 5841 5843 5844 5845 5847 5848 5849 5850 5851 5852 5853 5854 5855 5856 5857 5858 5859 5860 5861 5862 5862 5863 5864 5864 5865 5865 5866 5866 5867 5867 5867 5867 5867 5867 5867 5867 5867
5825 5827 5829 5831 5834 5836 5838 5840 5841 5842 5844 5845 5846 5847 5848 5850 5851 5852 5853 5854 5855 5856 5857 5857 5858 5859 5860 5861 5861 5862 5863 5863 5864 5864 5865 5865 5865 5865 5865 5865 5865 5865 5865
5820 5823 5825 5827 5830 5832 5834 5836 5838 5839 5840 5842 5843 5844 5845 5847 5848 5849 5850 5851 5852 5853 5854 5855 5856 5856 5857 5858 5859 5859 5860 5861 5861 5862 5862 5862 5863 5863 5863 5863 5863 5863 5863
5815 5818 5821 5823 5826 5828 5830 5832 5834 5835 5837 5838 5839 5841 5842 5843 5844 5846 5847 5848 5849 5850 5851 5852 5853 5854 5854 5855 5856 5856 5857 5858 5858 5859 5859 5860 5860 5860 5860 5860 5860 5860 5860
5810 5813 5815 5818 5821 5823 5825 5827 5830 5831 5832 5834 5836 5837 5839 5840 5841 5842 5844 5845 5846 5847 5848 5849 5850 5850 5851 5852 5852 5853 5854 5855 5855 5856 5856 5856 5857 5857 5857 5857 5857 5857 5857
5804 5807 5810 5813 5816 5818 5820 5823 5825 5827 5828 5830 5832 5833 5835 5836 5837 5839 5840 5841 5842 5843 5844 5846 5846 5847 5848 5848 5849 5850 5850 5851 5852 5852 5853 5853 5853 5854 5854 5854 5854 5854 5854
5798 5802 5805 5808 5811 5813 5816 5819 5821 5823 5825 5826 5827 5829 5831 5832 5833 5835 5836 5837 5838 5839 5840 5842 5843 5843 5844 5845 5845 5846 5847 5847 5848 5849 5849 5849 5850 5850 5850 5850 5850 5850 5850
5793 5796 5799 5802 5806 5808 5811 5814 5816 5819 5820 5822 5823 5824 5826 5828 5829 5831 5832 5833 5834 5835 5836 5837 5838 5839 5840 5840 5841 5842 5843 5843 5844 5844 5845 5845 5845 5846 5846 5846 5846 5846 5846
5787 5791 5795 5798 5801 5803 5806 5809 5811 5814 5816 5817 5819 5820 5821 5823 5825 5826 5828 5829 5830 5831 5832 5833 5834 5834 5835 5836 5837 5838 5838 5839 5839 5840 5840 5841 5841 5841 5841 5841 5841 5841 5841
5782 5785 5790 5793 5796 5798 5801 5804 5806 5808 5811 5813 5814 5815 5817 5818 5820 5822 5823 5824 5825 5826 5827 5828 5829 5830 5831 5832 5832 5833 5834 5834 5835 5835 5836 5836 5836 5836 5836 5836 5836 5836 5836
5777 5780 5784 5787 5790 5793 5795 5798 5800 5803 5805 5807 5809 5810 5812 5814 5815 5817 5818 5819 5820 5822 5823 5823 5824 5825 5826 5827 5828 5828 5829 5829 5830 5830 5830 5830 5831 5831 5831 5831 5831 5831 5830
5772 5775 5777 5781 5784 5787 5790 5792 5795 5797 5800 5802 5804 5805 5807 5808 5810 5812 5813 5814 5815 5816 5818 5819 5819 5820 5821 5822 5823 5823 5824 5824 5824 5824 5824 5825 5825 5825 5825 5825 5825 5824 5824
5766 5769 5773 5776 5778 5781 5784 5787 5789 5792 5794 5796 5798 5800 5801 5803 5805 5806 5808 5809 5810 5811 5812 5813 5814 5815 5816 5816 5817 5817 5818 5818 5818 5818 5819 5818 5818 5818 5818 5818 5818 5818 5818
5761 5764 5768 5771 5773 5775 5778 5781 5783 5786 5788 5790 5792 5794 5796 5797 5798 5800 5802 5803 5804 5805 5806 5807 5808 5809 5810 5810 5811 5811 5811 5812 5812 5812 5812 5812 5812 5812 5811 5811 5811 5811 5811
5757 5760 5763 5766 5767 5770 5773 5776 5778 5780 5782 5784 5786 5788 5790 5791 5792 5794 5796 5797 5798 5799 5800 5801 5802 5803 5803 5804 5804 5804 5805 5805 5805 5805 5805 5804 5804 5804 5804 5804 5803 5803 5803
5751 5755 5758 5761 5763 5765 5768 5769 5772 5773 5775 5777 5780 5781 5783 5785 5786 5787 5789 5790 5791 5793 5793 5794 5795 5796 5796 5797 5797 5797 5797 5797 5797 5797 5797 5797 5797 5796 5796 5796 5796 5795 5795
5747 5749 5752 5755 5758 5760 5762 5764 5765 5767 5769 5771 5773 5775 5776 5778 5779 5781 5782 5783 5784 5786 5786 5787 5788 5788 5789 5790 5790 5790 5790 5790 5790 5789 5789 5789 5788 5788 5788 5787 5787 5787 5786
5742 5744 5747 5750 5752 5755 5756 5758 5760 5762 5763 5765 5767 5768 5769 5771 5772 5774 5775 5776 5777 5778 5779 5780 5780 5781 5781 5781 5782 5782 5782 5781 5781 5781 5780 5780 5780 5779 5779 5778 5778 5777 5777
5737 5739 5742 5744 5747 5749 5751 5752 5754 5756 5757 5759 5760 5761 5762 5764 5765 5766 5768 5769 5770 5771 5771 5772 5772 5773 5773 5773 5773 5773 5774 5774 5773 5772 5772 5771 5770 5770 5769 5768 5768 5767 5767
5732 5734 5737 5739 5741 5743 5745 5746 5748 5749 5750 5752 5752 5753 5754 5756 5757 5758 5760 5761 5762 5763 5763 5764 5764 5764 5765 5764 5764 5764 5764 5764 5764 5764 5763 5762 5761 5760 5760 5758 5757 5756 5756
5728 5729 5731 5733 5735 5737 5739 5740 5741 5742 5743 5744 5745 5745 5747 5748 5749 5750 5752 5753 5754 5754 5755 5755 5755 5755 5755 5755 5755 5754 5754 5754 5754 5754 5754 5753 5751 5750 5749 5748 5747 5746 5745
5723 5725 5726 5728 5729 5731 5732 5733 5734 5735 5736 5737 5737 5738 5739 5740 5741 5742 5743 5744 5745 5745 5746 5746 5746 5745 5745 5745 5745 5744 5744 5743 5743 5743 5743 5743 5741 5740 5738 5737 5736 5735 5734
5718 5720 5721 5722 5722 5723 5725 5726 5727 5728 5729 5729 5730 5730 5730 5731 5732 5733 5734 5735 5735 5736 5736 5736 5735 5735 5735 5735 5734 5734 5733 5733 5732 5731 5731 5731 5730 5729 5727 5726 5724 5723 5722